When you browse on this site, cookies collect data to enhance your experience and personalize the content and advertising you see.
Visit our Privacy Policy to learn more. By continuing to use the site, you agree to this use of cookies and data.
  • In Netherlands
  • List of Countries
  • For 7 days
  • Water Temperature
  • Weather Map
  • Weather Widgets
  • user-avatar
    Login

    Hourly Weather Byala

    Today, 18 August, Sunday

    Time Temperature Precipitation Wind Pressure Humidity
    00:00 +18°C° 0 mm 2 mps 751 mmHg 70%
    01:00 +18°C° 0 mm 2 mps 751 mmHg 73%
    02:00 +17°C° 0 mm 3 mps 751 mmHg 80%
    03:00 +17°C° 0 mm 3 mps 751 mmHg 78%
    04:00 +17°C° 0 mm 3 mps 751 mmHg 77%
    05:00 +17°C° 0 mm 4 mps 751 mmHg 76%
    06:00 +19°C° 0 mm 4 mps 751 mmHg 64%
    07:00 +21°C° 0 mm 4 mps 751 mmHg 51%
    08:00 +23°C° 0 mm 4 mps 752 mmHg 39%
    09:00 +26°C° 0 mm 4 mps 752 mmHg 35%
    10:00 +28°C° 0 mm 4 mps 752 mmHg 32%
    11:00 +29°C° 0 mm 4 mps 752 mmHg 28%
    12:00 +29°C° 0 mm 4 mps 752 mmHg 29%
    13:00 +30°C° 0 mm 5 mps 752 mmHg 29%
    14:00 +30°C° 0 mm 5 mps 752 mmHg 30%
    15:00 +29°C° 0 mm 5 mps 751 mmHg 34%
    16:00 +28°C° 0 mm 4 mps 751 mmHg 37%
    17:00 +27°C° 0 mm 4 mps 751 mmHg 41%
    18:00 +25°C° 0 mm 3 mps 751 mmHg 48%
    19:00 +22°C° 0 mm 3 mps 752 mmHg 55%
    20:00 +20°C° 0 mm 2 mps 752 mmHg 63%
    21:00 +19°C° 0 mm 2 mps 752 mmHg 65%
    22:00 +20°C° 0 mm 1 mps 752 mmHg 67%
    23:00 +19°C° 0 mm 1 mps 752 mmHg 69%

    Tomorrow, 19 August, Monday

    Time Temperature Precipitation Wind Pressure Humidity
    00:00 +19°C° 0 mm 1 mps 752 mmHg 70%
    01:00 +19°C° 0 mm 1 mps 752 mmHg 71%
    02:00 +19°C° 0 mm 1 mps 752 mmHg 71%
    03:00 +18°C° 0 mm 1 mps 752 mmHg 71%
    04:00 +17°C° 0 mm 2 mps 752 mmHg 71%
    05:00 +17°C° 0 mm 2 mps 752 mmHg 70%
    06:00 +20°C° 0 mm 2 mps 753 mmHg 60%
    07:00 +23°C° 0 mm 2 mps 753 mmHg 50%
    08:00 +26°C° 0 mm 2 mps 753 mmHg 40%
    09:00 +27°C° 0 mm 3 mps 753 mmHg 38%
    10:00 +29°C° 0 mm 3 mps 753 mmHg 36%
    11:00 +30°C° 0 mm 4 mps 753 mmHg 33%
    12:00 +30°C° 0 mm 4 mps 753 mmHg 34%
    13:00 +30°C° 0 mm 5 mps 753 mmHg 34%
    14:00 +30°C° 0 mm 5 mps 753 mmHg 34%
    15:00 +29°C° 0 mm 5 mps 753 mmHg 37%
    16:00 +29°C° 0 mm 4 mps 753 mmHg 40%
    17:00 +28°C° 0 mm 4 mps 753 mmHg 43%
    18:00 +26°C° 0 mm 4 mps 753 mmHg 54%
    19:00 +22°C° 0 mm 3 mps 753 mmHg 65%
    20:00 +20°C° 0 mm 2 mps 753 mmHg 76%
    21:00 +21°C° 0 mm 1 mps 753 mmHg 78%
    22:00 +20°C° 0 mm 1 mps 753 mmHg 80%
    23:00 +20°C° 0 mm 1 mps 754 mmHg 82%

    Day after tomorrow, 20 August, Tuesday

    Time Temperature Precipitation Wind Pressure Humidity
    00:00 +20°C° 0 mm 1 mps 754 mmHg 82%
    01:00 +18°C° 0 mm 2 mps 753 mmHg 82%
    02:00 +18°C° 0 mm 2 mps 753 mmHg 82%
    03:00 +18°C° 0 mm 2 mps 753 mmHg 82%
    04:00 +18°C° 0 mm 3 mps 753 mmHg 82%
    05:00 +17°C° 0 mm 3 mps 753 mmHg 82%
    06:00 +19°C° 0 mm 3 mps 754 mmHg 73%
    07:00 +21°C° 0 mm 4 mps 754 mmHg 63%
    08:00 +25°C° 0 mm 4 mps 754 mmHg 54%
    09:00 +26°C° 0 mm 4 mps 754 mmHg 48%
    10:00 +28°C° 0 mm 4 mps 754 mmHg 42%
    11:00 +30°C° 0 mm 5 mps 754 mmHg 35%
    12:00 +30°C° 0 mm 5 mps 754 mmHg 34%
    13:00 +32°C° 0 mm 5 mps 754 mmHg 33%
    14:00 +33°C° 0 mm 6 mps 754 mmHg 32%
    15:00 +32°C° 0 mm 6 mps 753 mmHg 34%
    16:00 +30°C° 0 mm 6 mps 753 mmHg 37%
    17:00 +29°C° 0 mm 6 mps 753 mmHg 39%
    18:00 +27°C° 0 mm 5 mps 753 mmHg 51%
    19:00 +25°C° 0 mm 5 mps 753 mmHg 63%
    20:00 +22°C° 0 mm 4 mps 753 mmHg 74%
    21:00 +21°C° 0 mm 4 mps 753 mmHg 76%
    22:00 +21°C° 0 mm 3 mps 753 mmHg 77%
    23:00 +21°C° 0 mm 3 mps 754 mmHg 78%

    21 August, Wednesday

    Time Temperature Precipitation Wind Pressure Humidity
    00:00 +21°C° 0 mm 3 mps 753 mmHg 75%
    01:00 +21°C° 0 mm 4 mps 753 mmHg 73%
    02:00 +20°C° 0 mm 4 mps 753 mmHg 70%
    03:00 +21°C° 0 mm 4 mps 752 mmHg 68%
    04:00 +21°C° 0 mm 5 mps 752 mmHg 66%
    05:00 +21°C° 0 mm 5 mps 752 mmHg 65%
    06:00 +23°C° 0 mm 5 mps 752 mmHg 59%
    07:00 +26°C° 0 mm 5 mps 752 mmHg 53%
    08:00 +27°C° 0 mm 5 mps 753 mmHg 47%
    09:00 +29°C° 0 mm 6 mps 753 mmHg 43%
    10:00 +32°C° 0 mm 6 mps 753 mmHg 39%
    11:00 +34°C° 0 mm 6 mps 752 mmHg 35%
    12:00 +34°C° 0 mm 6 mps 752 mmHg 35%
    13:00 +35°C° 0 mm 6 mps 752 mmHg 35%
    14:00 +35°C° 0 mm 6 mps 751 mmHg 35%
    15:00 +34°C° 0 mm 6 mps 751 mmHg 38%
    16:00 +33°C° 0 mm 6 mps 751 mmHg 41%
    17:00 +32°C° 0 mm 6 mps 751 mmHg 44%
    18:00 +28°C° 0 mm 4 mps 751 mmHg 53%
    19:00 +26°C° 0 mm 3 mps 751 mmHg 63%
    20:00 +24°C° 0 mm 2 mps 751 mmHg 72%
    21:00 +24°C° 0 mm 2 mps 751 mmHg 69%
    22:00 +24°C° 0 mm 2 mps 751 mmHg 67%
    23:00 +22°C° 0 mm 3 mps 751 mmHg 65%

    22 August, Thursday

    Time Temperature Precipitation Wind Pressure Humidity
    00:00 +22°C° 0 mm 3 mps 751 mmHg 64%
    01:00 +22°C° 0 mm 3 mps 751 mmHg 63%
    02:00 +22°C° 0 mm 3 mps 751 mmHg 62%
    03:00 +22°C° 0 mm 4 mps 750 mmHg 62%
    04:00 +22°C° 0 mm 4 mps 750 mmHg 61%
    05:00 +22°C° 0 mm 4 mps 750 mmHg 61%
    06:00 +25°C° 0 mm 5 mps 750 mmHg 54%
    07:00 +27°C° 0 mm 5 mps 751 mmHg 47%
    08:00 +29°C° 0 mm 6 mps 751 mmHg 40%
    09:00 +32°C° 0 mm 6 mps 751 mmHg 35%
    10:00 +34°C° 0 mm 6 mps 751 mmHg 30%
    11:00 +36°C° 0 mm 6 mps 751 mmHg 25%
    12:00 +36°C° 0 mm 6 mps 751 mmHg 26%
    13:00 +36°C° 0 mm 6 mps 751 mmHg 26%
    14:00 +37°C° 0 mm 5 mps 750 mmHg 27%
    15:00 +36°C° 0 mm 5 mps 750 mmHg 30%
    16:00 +35°C° 0 mm 4 mps 750 mmHg 33%
    17:00 +34°C° 0 mm 4 mps 750 mmHg 36%
    18:00 +31°C° 0 mm 3 mps 750 mmHg 43%
    19:00 +29°C° 0 mm 2 mps 750 mmHg 50%
    20:00 +26°C° 0 mm 2 mps 750 mmHg 56%
    21:00 +27°C° 0 mm 3 mps 750 mmHg 55%
    22:00 +27°C° 0 mm 5 mps 750 mmHg 53%
    23:00 +27°C° 0 mm 7 mps 750 mmHg 51%

    23 August, Friday

    Time Temperature Precipitation Wind Pressure Humidity
    00:00 +27°C° 0 mm 7 mps 750 mmHg 55%
    01:00 +26°C° 0 mm 8 mps 750 mmHg 58%
    02:00 +24°C° 0 mm 8 mps 750 mmHg 62%
    03:00 +23°C° 0 mm 8 mps 751 mmHg 65%
    04:00 +22°C° 0 mm 8 mps 751 mmHg 68%
    05:00 +22°C° 0 mm 8 mps 751 mmHg 72%
    06:00 +22°C° 0 mm 8 mps 751 mmHg 67%
    07:00 +23°C° 0 mm 7 mps 751 mmHg 63%
    08:00 +24°C° 0 mm 7 mps 751 mmHg 59%
    09:00 +28°C° 0 mm 6 mps 752 mmHg 51%
    10:00 +30°C° 0 mm 6 mps 752 mmHg 44%
    11:00 +34°C° 0 mm 5 mps 752 mmHg 36%
    12:00 +35°C° 0 mm 6 mps 751 mmHg 35%
    13:00 +35°C° 0 mm 7 mps 751 mmHg 34%
    14:00 +36°C° 0 mm 7 mps 751 mmHg 33%
    15:00 +35°C° 0 mm 7 mps 751 mmHg 37%
    16:00 +34°C° 0 mm 7 mps 751 mmHg 41%
    17:00 +33°C° 0 mm 7 mps 751 mmHg 45%
    18:00 +30°C° 0 mm 6 mps 751 mmHg 51%
    19:00 +28°C° 0 mm 5 mps 751 mmHg 56%
    20:00 +27°C° 0 mm 4 mps 751 mmHg 62%
    21:00 +26°C° 0 mm 4 mps 751 mmHg 61%
    22:00 +26°C° 0 mm 4 mps 751 mmHg 60%
    23:00 +26°C° 0 mm 4 mps 751 mmHg 59%
    Show more